Flag for Canada Weather past 2 weeks in Saguenay, Quebec, Canada

Now
57 °F

Cool.


Feels Like: 55 °F
Forecast: 55 / 67 °F
Wind: 8 mph from Northwest

Location: Jonquiere Airport

Current Time: Jul 29, 2014 at 1:30:46 AM

Latest Report: Jul 29, 2014 at 1:00 AM


Visibility: N/A

Pressure: 29.62 "Hg

Humidity: 94%

Dew point: 55 °F

Location of SaguenayLocation

Historic Weather in Saguenay — Graph

°F

Saguenay temperature yesterday

Maximum temperature yesterday: 67 °F (at 4:00 PM)
Minimum temperature yesterday: 55 °F (at 6:00 AM)
Average temperature yesterday: 60 °F

Past Weeks' High & Low Weather Summary

 TemperatureHumidityPressure
High84 °F (Jul 22, 12:00 PM)100% (Jul 27, 12:00 AM)30.27 "Hg (Jul 27, 12:00 AM)
Low52 °F (Jul 25, 6:00 AM)34% (Jul 24, 3:00 PM)29.59 "Hg (Jul 27, 5:00 PM)
Average67 °F72%29.88 "Hg
* Reported Midnight between Jul 13 and Jul 14 — Midnight between Jul 28 and Jul 29, Saguenay, Weather by CustomWeather, © 2014

Note: Actual official high and low records may vary slightly from our data, if they occured in-between our weather recording intervals... More about our weather records

Advertising

Saguenay weather history for previous 24 hours

 ConditionsComfort  
Time TempWeatherWind HumidityBarometerVisibility
12:00 AM
Jul 29
58 °FCool.9 mph91%29.65 "HgN/A
11:00 PM
Jul 28
59 °FCool.7 mph88%29.67 "HgN/A
10:00 PM60 °FCool.7 mph85%29.68 "HgN/A
9:00 PM60 °FCool.9 mph85%29.70 "HgN/A
8:00 PM61 °FCool.7 mph86%29.70 "HgN/A
7:00 PM61 °FCool.6 mph86%29.72 "HgN/A
6:00 PM63 °FMild.7 mph75%29.72 "HgN/A
4:00 PM67 °FMild.6 mph70%29.74 "HgN/A
3:00 PM67 °FMild.7 mph62%29.75 "HgN/A
2:00 PM66 °FMild.7 mph68%29.75 "HgN/A
1:00 PM65 °FMild.3 mph74%29.77 "HgN/A
12:00 PM62 °FCool.3 mph71%29.78 "HgN/A
11:00 AM60 °FCool.3 mph86%29.79 "HgN/A
10:00 AM56 °FCool.3 mph88%29.78 "HgN/A
9:00 AM57 °FCool.5 mph90%29.79 "HgN/A
8:00 AM55 °FCool.7 mph91%29.77 "HgN/A
7:00 AM56 °FCool.7 mph95%29.76 "HgN/A
6:00 AM55 °FCool.5 mph95%29.73 "HgN/A
5:00 AM56 °FCool.5 mph89%29.72 "HgN/A
4:00 AM56 °FCool.5 mph97%29.70 "HgN/A
3:00 AM58 °FCool.7 mph94%29.70 "HgN/A
2:00 AM58 °FCool.6 mph94%29.69 "HgN/A
1:00 AM59 °FCool.7 mph93%29.69 "HgN/A
Weather by CustomWeather, © 2014

See weather overviewHow to use our weather pages